Location: Unspecified
(0.0000°N, 0.0000°E)
Time: 23:26:16
(UTC+00:00)

Vanguard 2 - Pass Details

Date: 02 October 2020
Orbit: 554 x 2937 km, 32.9° (Epoch: 28 October)

Event Time Altitude Azimuth Distance (km) Brightness Sun altitude
Rises 00:58:42 0° 243° (WSW) 6,762 - -72.3°
Reaches altitude 10° 01:03:32 10° 246° (WSW) 5,633 - -71.1°
Maximum altitude 01:19:37 59° 321° (NW) 2,478 - -67.1°
Drops below altitude 10° 01:30:04 10° 39° (NE) 3,792 - -64.6°
Sets 01:32:42 0° 44° (NE) 4,499 - -63.9°
